Hourly Data Report for October 01, 2017

All times are specified in Local Standard Time (LST). Add 1 hour to adjust for Daylight Saving Time where and when it is observed.

PARRSBORO
NOVA SCOTIA

45°24'48.000" N
64°20'49.000" W
30.90 m
8204402
71493
APR

Download Data

Hourly Data (October 2017)
Hourly Data Report for October 1, 2017
Temp Definition
°C
Dew Point Temp Definition
°C
Rel Hum Definition
%
Wind Dir Definition
10's deg

Wind Spd Definition
km/h
Visibility Definition
km
Stn Press Definition
kPa
Hmdx Definition


Wind Chill Definition


Weather Definition


TIME
00:00 0.1 -0.2 98   0   102.11     LegendNANA
01:00 0.0 -0.3 98   0   102.09     LegendNANA
02:00 -0.5 -0.7 99   0   102.09     LegendNANA
03:00 -0.1 -0.3 99   0   102.06     LegendNANA
04:00 -1.1 -1.3 99   0   102.02     LegendNANA
05:00 -1.2 -1.3 99   0   102.00     LegendNANA
06:00 -1.6 -1.6 99   0   101.99     LegendNANA
07:00 0.0 -0.1 99   0   102.00     LegendNANA
08:00 5.8 5.2 96 0 1   102.01     LegendNANA
09:00 11.1 5.5 68 26 7   101.97     LegendNANA
10:00 13.3 5.0 57 25 12   101.93     LegendNANA
11:00 14.0 5.3 56 24 14   101.90     LegendNANA
12:00 13.6 5.6 58 24 16   101.81     LegendNANA
13:00 13.4 5.2 58 24 17   101.75     LegendNANA
14:00 13.7 5.4 57 24 18   101.69     LegendNANA
15:00 13.7 5.3 57 25 19   101.61     LegendNANA
16:00 13.5 4.7 55 25 14   101.56     LegendNANA
17:00 12.8 4.2 56 26 12   101.55     LegendNANA
18:00 11.3 4.4 63 27 9   101.57     LegendNANA
19:00 10.7 5.4 70 27 10   101.63     LegendNANA
20:00 9.8 6.6 80 28 6   101.64     LegendNANA
21:00 9.2 6.6 84 28 4   101.67     LegendNANA
22:00 8.3 6.9 91 27 6   101.66     LegendNANA
23:00 6.2 5.0 92   0   101.64     LegendNANA

Notes on Data Quality.

Legend

  • E = Estimated
  • M = Missing
  • NA = Not Available
  • ‡ = Partner data that is not subject to review by the National Climate Archives
Date modified: